Wetterdaten: Dienstag, 31.03.2015
Datum Zeit Temp. A. Feuchte A. Luftdruck Regen Wind Richtung Richtung Sonnenschein ET UV Solar Taupunkt Windchill Windben Empfang
31.03.2015 00:00 4,3 C 65 % 1012,9 hPa 0,0 l/m 0,4 km/h (0 Bft) SW 224 0 min 0,000 mm 0,0 UV-I 0 W/m -1,7 C 4,3 C 4,0 km/h (1 Bft) 0,00 %
31.03.2015 00:15 4,4 C 64 % 1012,6 hPa 0,0 l/m 4,0 km/h (1 Bft) SW 233 0 min 0,000 mm 0,0 UV-I 0 W/m -1,8 C 4,4 C 7,9 km/h (2 Bft) 0,00 %
31.03.2015 00:30 4,4 C 65 % 1012,9 hPa 0,0 l/m 2,2 km/h (1 Bft) NO 36 0 min 0,000 mm 0,0 UV-I 0 W/m -1,6 C 4,4 C 4,0 km/h (1 Bft) 0,00 %
31.03.2015 00:45 4,2 C 69 % 1012,6 hPa 0,0 l/m 0,4 km/h (0 Bft) W-SW 256 0 min 0,000 mm 0,0 UV-I 0 W/m -1,0 C 4,2 C 4,0 km/h (1 Bft) 0,00 %
31.03.2015 01:00 4,0 C 70 % 1012,4 hPa 0,0 l/m 1,8 km/h (1 Bft) O 86 0 min 0,000 mm 0,0 UV-I 0 W/m -1,0 C 4,0 C 4,0 km/h (1 Bft) 0,00 %
31.03.2015 01:15 4,0 C 74 % 1012,4 hPa 0,0 l/m 2,9 km/h (1 Bft) NW 311 0 min 0,000 mm 0,0 UV-I 0 W/m -0,2 C 4,0 C 7,9 km/h (2 Bft) 0,00 %
31.03.2015 01:30 3,7 C 76 % 1012,5 hPa 0,0 l/m 4,3 km/h (1 Bft) S-SO 167 0 min 0,000 mm 0,0 UV-I 0 W/m -0,1 C 3,7 C 7,9 km/h (2 Bft) 0,00 %
31.03.2015 01:45 3,6 C 76 % 1012,0 hPa 0,0 l/m 0,7 km/h (0 Bft) NO 45 0 min 0,000 mm 0,0 UV-I 0 W/m -0,2 C 3,6 C 7,9 km/h (2 Bft) 0,00 %
31.03.2015 02:00 3,8 C 75 % 1011,8 hPa 0,0 l/m 1,8 km/h (1 Bft) S-SW 205 0 min 0,000 mm 0,0 UV-I 0 W/m -0,2 C 3,8 C 4,0 km/h (1 Bft) 0,00 %
31.03.2015 02:15 3,7 C 74 % 1011,2 hPa 0,0 l/m 1,8 km/h (1 Bft) S-SW 210 0 min 0,000 mm 0,0 UV-I 0 W/m -0,5 C 3,7 C 4,0 km/h (1 Bft) 0,00 %
31.03.2015 02:30 3,9 C 72 % 1011,0 hPa 0,0 l/m 1,8 km/h (1 Bft) W-SW 255 0 min 0,000 mm 0,0 UV-I 0 W/m -0,7 C 3,9 C 4,0 km/h (1 Bft) 0,00 %
31.03.2015 02:45 3,9 C 71 % 1011,0 hPa 0,0 l/m 0,0 km/h (0 Bft) S 178 0 min 0,000 mm 0,0 UV-I 0 W/m -0,9 C 3,9 C 0,0 km/h (0 Bft) 0,00 %
31.03.2015 03:00 3,9 C 71 % 1010,7 hPa 0,0 l/m 0,4 km/h (0 Bft) W-SW 250 0 min 0,000 mm 0,0 UV-I 0 W/m -0,9 C 3,9 C 4,0 km/h (1 Bft) 0,00 %
31.03.2015 03:15 4,1 C 69 % 1010,5 hPa 0,0 l/m 0,0 km/h (0 Bft) SW 214 0 min 0,000 mm 0,0 UV-I 0 W/m -1,1 C 4,1 C 0,0 km/h (0 Bft) 0,00 %
31.03.2015 03:30 4,4 C 67 % 1010,0 hPa 0,0 l/m 0,0 km/h (0 Bft) S 184 0 min 0,000 mm 0,0 UV-I 0 W/m -1,2 C 4,4 C 0,0 km/h (0 Bft) 0,00 %
31.03.2015 03:45 4,5 C 66 % 1010,1 hPa 0,0 l/m 4,0 km/h (1 Bft) SW 219 0 min 0,000 mm 0,0 UV-I 0 W/m -1,3 C 4,5 C 4,0 km/h (1 Bft) 0,00 %
31.03.2015 04:00 4,6 C 66 % 1009,6 hPa 0,0 l/m 0,0 km/h (0 Bft) S 186 0 min 0,000 mm 0,0 UV-I 0 W/m -1,2 C 4,6 C 0,0 km/h (0 Bft) 0,00 %
31.03.2015 04:15 4,7 C 70 % 1008,8 hPa 0,3 l/m 0,4 km/h (0 Bft) N 351 0 min 0,000 mm 0,0 UV-I 0 W/m -0,3 C 4,7 C 4,0 km/h (1 Bft) 0,00 %
31.03.2015 04:30 4,6 C 72 % 1008,4 hPa 0,0 l/m 0,4 km/h (0 Bft) SW 221 0 min 0,000 mm 0,0 UV-I 0 W/m -0,0 C 4,6 C 4,0 km/h (1 Bft) 0,00 %
31.03.2015 04:45 4,3 C 78 % 1007,9 hPa 0,3 l/m 2,2 km/h (1 Bft) O-NO 77 0 min 0,000 mm 0,0 UV-I 0 W/m 0,8 C 4,3 C 4,0 km/h (1 Bft) 0,00 %
31.03.2015 05:00 3,9 C 81 % 1007,8 hPa 0,3 l/m 0,0 km/h (0 Bft) S-SO 154 0 min 0,000 mm 0,0 UV-I 0 W/m 0,9 C 3,9 C 0,0 km/h (0 Bft) 0,00 %
31.03.2015 05:15 3,8 C 82 % 1007,1 hPa 0,3 l/m 0,0 km/h (0 Bft) SW 224 0 min 0,000 mm 0,0 UV-I 0 W/m 1,0 C 3,8 C 0,0 km/h (0 Bft) 0,00 %
31.03.2015 05:30 3,7 C 83 % 1006,1 hPa 0,3 l/m 0,0 km/h (0 Bft) N 349 0 min 0,000 mm 0,0 UV-I 0 W/m 1,1 C 3,7 C 0,0 km/h (0 Bft) 0,00 %
31.03.2015 05:45 3,5 C 84 % 1005,5 hPa 0,0 l/m 0,0 km/h (0 Bft) S 181 0 min 0,000 mm 0,0 UV-I 0 W/m 1,1 C 3,5 C 0,0 km/h (0 Bft) 0,00 %
31.03.2015 06:00 3,5 C 85 % 1004,4 hPa 0,3 l/m 1,8 km/h (1 Bft) S-SO 156 0 min 0,000 mm 0,0 UV-I 0 W/m 1,2 C 3,5 C 4,0 km/h (1 Bft) 0,00 %
31.03.2015 06:15 3,5 C 86 % 1003,7 hPa 0,3 l/m 3,2 km/h (1 Bft) S-SO 150 0 min 0,000 mm 0,0 UV-I 0 W/m 1,4 C 3,5 C 7,9 km/h (2 Bft) 0,00 %
31.03.2015 06:30 3,3 C 87 % 1003,3 hPa 0,6 l/m 0,4 km/h (0 Bft) S-SW 197 0 min 0,000 mm 0,0 UV-I 0 W/m 1,3 C 3,3 C 4,0 km/h (1 Bft) 0,00 %
31.03.2015 06:45 3,3 C 88 % 1002,5 hPa 0,6 l/m 0,7 km/h (0 Bft) S-SO 163 0 min 0,000 mm 0,0 UV-I 0 W/m 1,5 C 3,3 C 4,0 km/h (1 Bft) 0,00 %
31.03.2015 07:00 3,2 C 88 % 1002,2 hPa 0,3 l/m 5,4 km/h (1 Bft) SO 130 0 min 0,000 mm 0,0 UV-I 0 W/m 1,4 C 3,2 C 7,9 km/h (2 Bft) 0,00 %
31.03.2015 07:15 3,2 C 88 % 1001,8 hPa 0,3 l/m 6,8 km/h (2 Bft) O-SO 117 0 min 0,000 mm 0,0 UV-I 0 W/m 1,4 C 2,8 C 7,9 km/h (2 Bft) 0,00 %
31.03.2015 07:30 3,2 C 89 % 1000,9 hPa 0,0 l/m 6,8 km/h (2 Bft) SO 133 0 min 0,000 mm 0,0 UV-I 8 W/m 1,6 C 2,8 C 11,9 km/h (2 Bft) 0,00 %
31.03.2015 07:45 3,3 C 89 % 1000,7 hPa 0,3 l/m 0,4 km/h (0 Bft) W-SW 256 0 min 0,000 mm 1,0 UV-I 34 W/m 1,7 C 3,3 C 4,0 km/h (1 Bft) 0,00 %
31.03.2015 08:00 3,5 C 88 % 1000,2 hPa 0,0 l/m 0,0 km/h (0 Bft) S-SW 207 0 min 0,000 mm 0,0 UV-I 25 W/m 1,7 C 3,5 C 0,0 km/h (0 Bft) 0,00 %
31.03.2015 08:15 3,6 C 88 % 1000,1 hPa 0,0 l/m 0,0 km/h (0 Bft) S 181 0 min 0,000 mm 0,0 UV-I 24 W/m 1,8 C 3,6 C 0,0 km/h (0 Bft) 0,00 %
31.03.2015 08:30 3,7 C 88 % 999,6 hPa 0,0 l/m 0,0 km/h (0 Bft) S 178 0 min 0,000 mm 1,0 UV-I 38 W/m 1,9 C 3,7 C 0,0 km/h (0 Bft) 0,00 %
31.03.2015 08:45 4,0 C 89 % 999,0 hPa 0,0 l/m 0,0 km/h (0 Bft) S 179 0 min 0,000 mm 1,0 UV-I 49 W/m 2,4 C 4,0 C 0,0 km/h (0 Bft) 0,00 %
31.03.2015 09:00 4,2 C 89 % 998,2 hPa 0,0 l/m 0,0 km/h (0 Bft) S 179 0 min 0,000 mm 1,0 UV-I 188 W/m 2,6 C 4,2 C 0,0 km/h (0 Bft) 0,00 %
31.03.2015 09:15 4,6 C 88 % 997,8 hPa 0,0 l/m 0,0 km/h (0 Bft) S 189 0 min 0,000 mm 2,0 UV-I 222 W/m 2,8 C 4,6 C 0,0 km/h (0 Bft) 0,00 %
31.03.2015 09:30 5,2 C 86 % 996,8 hPa 0,0 l/m 0,0 km/h (0 Bft) W-SW 251 0 min 0,000 mm 2,0 UV-I 233 W/m 3,1 C 5,2 C 0,0 km/h (0 Bft) 0,00 %
31.03.2015 09:45 6,3 C 83 % 996,3 hPa 0,0 l/m 0,0 km/h (0 Bft) O-SO 116 15 min 0,000 mm 2,0 UV-I 288 W/m 3,6 C 6,3 C 0,0 km/h (0 Bft) 0,00 %
31.03.2015 10:00 7,8 C 79 % 996,1 hPa 0,0 l/m 0,7 km/h (0 Bft) N 355 15 min 0,000 mm 2,0 UV-I 299 W/m 4,4 C 7,8 C 4,0 km/h (1 Bft) 0,00 %
31.03.2015 10:15 9,0 C 75 % 995,9 hPa 0,0 l/m 0,4 km/h (0 Bft) O-SO 120 0 min 0,000 mm 1,0 UV-I 118 W/m 4,8 C 9,0 C 4,0 km/h (1 Bft) 0,00 %
31.03.2015 10:30 9,9 C 71 % 995,0 hPa 0,0 l/m 5,4 km/h (1 Bft) NW 323 0 min 0,000 mm 1,0 UV-I 145 W/m 4,9 C 9,9 C 7,9 km/h (2 Bft) 0,00 %
31.03.2015 10:45 10,8 C 67 % 995,2 hPa 0,0 l/m 4,7 km/h (1 Bft) SW 226 0 min 0,000 mm 2,0 UV-I 192 W/m 4,9 C 10,8 C 11,9 km/h (2 Bft) 0,00 %
31.03.2015 11:00 11,7 C 64 % 994,7 hPa 0,0 l/m 1,8 km/h (1 Bft) N-NO 30 0 min 0,000 mm 1,0 UV-I 141 W/m 5,1 C 11,7 C 4,0 km/h (1 Bft) 0,00 %
31.03.2015 11:15 12,5 C 62 % 994,6 hPa 0,0 l/m 0,7 km/h (0 Bft) S 186 0 min 0,000 mm 1,0 UV-I 126 W/m 5,4 C 12,5 C 4,0 km/h (1 Bft) 0,00 %
31.03.2015 11:30 13,5 C 54 % 994,4 hPa 0,0 l/m 23,4 km/h (4 Bft) W 259 0 min 0,000 mm 2,0 UV-I 169 W/m 4,4 C 6,9 C 28,1 km/h (4 Bft) 0,00 %
31.03.2015 11:45 14,6 C 49 % 993,7 hPa 0,0 l/m 27,4 km/h (4 Bft) W-SW 251 0 min 0,000 mm 2,0 UV-I 252 W/m 4,0 C 7,6 C 36,0 km/h (5 Bft) 0,00 %
31.03.2015 12:00 15,1 C 46 % 993,6 hPa 0,0 l/m 23,0 km/h (4 Bft) SW 219 0 min 0,000 mm 3,0 UV-I 273 W/m 3,6 C 9,2 C 28,1 km/h (4 Bft) 0,00 %
31.03.2015 12:15 15,6 C 43 % 993,6 hPa 0,0 l/m 22,3 km/h (4 Bft) W-NW 301 0 min 0,000 mm 2,0 UV-I 274 W/m 3,1 C 10,0 C 28,1 km/h (4 Bft) 0,00 %
31.03.2015 12:30 15,7 C 43 % 993,6 hPa 0,0 l/m 30,6 km/h (5 Bft) W-NW 292 0 min 0,000 mm 3,0 UV-I 197 W/m 3,2 C 8,6 C 44,3 km/h (6 Bft) 0,00 %
31.03.2015 12:45 15,9 C 43 % 993,8 hPa 0,0 l/m 18,4 km/h (3 Bft) W-SW 256 0 min 0,000 mm 2,0 UV-I 246 W/m 3,3 C 11,3 C 24,1 km/h (4 Bft) 0,00 %
31.03.2015 13:00 16,0 C 43 % 994,0 hPa 0,0 l/m 18,4 km/h (3 Bft) W-NW 299 0 min 0,000 mm 3,0 UV-I 311 W/m 3,4 C 11,4 C 32,0 km/h (5 Bft) 0,00 %
31.03.2015 13:15 15,4 C 46 % 994,8 hPa 0,0 l/m 19,8 km/h (3 Bft) W 263 0 min 0,000 mm 2,0 UV-I 178 W/m 3,8 C 10,3 C 24,1 km/h (4 Bft) 0,00 %
31.03.2015 13:30 14,6 C 50 % 994,7 hPa 0,0 l/m 23,0 km/h (4 Bft) W-SW 256 0 min 0,000 mm 3,0 UV-I 327 W/m 4,3 C 8,5 C 28,1 km/h (4 Bft) 0,00 %
31.03.2015 13:45 15,2 C 49 % 995,2 hPa 0,0 l/m 15,8 km/h (3 Bft) W-SW 251 0 min 0,000 mm 1,0 UV-I 238 W/m 4,6 C 11,2 C 19,8 km/h (3 Bft) 0,00 %
31.03.2015 14:00 14,1 C 54 % 995,1 hPa 0,0 l/m 28,1 km/h (4 Bft) SW 218 0 min 0,000 mm 3,0 UV-I 165 W/m 4,9 C 6,8 C 44,3 km/h (6 Bft) 0,00 %
31.03.2015 14:15 13,7 C 55 % 995,4 hPa 0,0 l/m 20,5 km/h (4 Bft) W 275 0 min 0,000 mm 2,0 UV-I 363 W/m 4,8 C 7,9 C 28,1 km/h (4 Bft) 0,00 %
31.03.2015 14:30 14,6 C 50 % 994,8 hPa 0,0 l/m 15,5 km/h (3 Bft) SW 228 0 min 0,000 mm 2,0 UV-I 255 W/m 4,3 C 10,5 C 24,1 km/h (4 Bft) 0,00 %
31.03.2015 14:45 13,5 C 58 % 995,8 hPa 0,0 l/m 4,0 km/h (1 Bft) S-SW 206 0 min 0,000 mm 2,0 UV-I 194 W/m 5,4 C 13,5 C 11,9 km/h (2 Bft) 0,00 %
31.03.2015 15:00 13,7 C 53 % 996,0 hPa 0,0 l/m 28,1 km/h (4 Bft) S-SW 194 0 min 0,000 mm 2,0 UV-I 165 W/m 4,3 C 6,2 C 40,0 km/h (6 Bft) 0,00 %
31.03.2015 15:15 13,4 C 59 % 996,2 hPa 0,0 l/m 24,1 km/h (4 Bft) W-SW 254 0 min 0,000 mm 1,0 UV-I 90 W/m 5,6 C 6,6 C 28,1 km/h (4 Bft) 0,00 %
31.03.2015 15:30 11,6 C 62 % 996,3 hPa 0,0 l/m 10,4 km/h (2 Bft) S 177 0 min 0,000 mm 2,0 UV-I 207 W/m 4,6 C 9,1 C 24,1 km/h (4 Bft) 0,00 %
31.03.2015 15:45 12,4 C 57 % 996,4 hPa 0,0 l/m 22,0 km/h (4 Bft) W-SW 253 0 min 0,000 mm 1,0 UV-I 135 W/m 4,1 C 5,8 C 32,0 km/h (5 Bft) 0,00 %
31.03.2015 16:00 12,3 C 60 % 996,3 hPa 0,0 l/m 15,8 km/h (3 Bft) W-SW 256 0 min 0,000 mm 1,0 UV-I 143 W/m 4,8 C 7,6 C 24,1 km/h (4 Bft) 0,00 %
31.03.2015 16:15 12,5 C 57 % 996,0 hPa 0,0 l/m 9,0 km/h (2 Bft) W-SW 255 0 min 0,000 mm 1,0 UV-I 110 W/m 4,2 C 10,9 C 11,9 km/h (2 Bft) 0,00 %
31.03.2015 16:30 12,0 C 61 % 996,6 hPa 0,0 l/m 10,8 km/h (2 Bft) W-SW 256 0 min 0,000 mm 1,0 UV-I 55 W/m 4,7 C 9,4 C 19,8 km/h (3 Bft) 0,00 %
31.03.2015 16:45 10,8 C 70 % 997,4 hPa 0,0 l/m 7,2 km/h (2 Bft) S-SW 202 0 min 0,000 mm 0,0 UV-I 40 W/m 5,6 C 10,2 C 7,9 km/h (2 Bft) 0,00 %
31.03.2015 17:00 9,6 C 74 % 998,5 hPa 0,0 l/m 40,0 km/h (6 Bft) W-SW 246 0 min 0,000 mm 0,0 UV-I 36 W/m 5,2 C -1,7 C 48,2 km/h (6 Bft) 0,00 %
31.03.2015 17:15 8,8 C 72 % 998,0 hPa 0,0 l/m 32,0 km/h (5 Bft) W-NW 290 0 min 0,000 mm 0,0 UV-I 34 W/m 4,0 C -1,5 C 44,3 km/h (6 Bft) 0,00 %
31.03.2015 17:30 10,0 C 65 % 998,8 hPa 0,0 l/m 15,8 km/h (3 Bft) SW 223 0 min 0,000 mm 1,0 UV-I 78 W/m 3,7 C 4,8 C 24,1 km/h (4 Bft) 0,00 %
31.03.2015 17:45 9,9 C 67 % 999,6 hPa 0,0 l/m 10,4 km/h (2 Bft) NW 322 0 min 0,000 mm 0,0 UV-I 16 W/m 4,1 C 7,3 C 15,8 km/h (3 Bft) 0,00 %
31.03.2015 18:00 8,9 C 73 % 999,3 hPa 0,0 l/m 24,1 km/h (4 Bft) W-SW 256 0 min 0,000 mm 1,0 UV-I 67 W/m 4,3 C 0,6 C 28,1 km/h (4 Bft) 0,00 %
31.03.2015 18:15 8,9 C 74 % 1000,1 hPa 0,0 l/m 4,7 km/h (1 Bft) S-SW 197 0 min 0,000 mm 0,0 UV-I 17 W/m 4,5 C 8,9 C 7,9 km/h (2 Bft) 0,00 %
31.03.2015 18:30 8,4 C 74 % 1001,2 hPa 0,0 l/m 28,1 km/h (4 Bft) SW 229 0 min 0,000 mm 0,0 UV-I 24 W/m 4,0 C -1,1 C 32,0 km/h (5 Bft) 0,00 %
31.03.2015 18:45 8,6 C 68 % 1000,6 hPa 0,0 l/m 24,8 km/h (4 Bft) W-SW 254 15 min 0,000 mm 0,0 UV-I 167 W/m 3,0 C -0,0 C 36,0 km/h (5 Bft) 0,00 %
31.03.2015 19:00 9,0 C 63 % 1000,9 hPa 0,0 l/m 27,4 km/h (4 Bft) W-SW 256 0 min 0,000 mm 0,0 UV-I 41 W/m 2,3 C -0,1 C 40,0 km/h (6 Bft) 0,00 %
31.03.2015 19:15 9,0 C 62 % 1002,4 hPa 0,0 l/m 2,9 km/h (1 Bft) W-SW 253 0 min 0,000 mm 0,0 UV-I 0 W/m 2,1 C 9,0 C 4,0 km/h (1 Bft) 0,00 %
31.03.2015 19:30 7,6 C 65 % 1003,3 hPa 0,0 l/m 14,8 km/h (3 Bft) W-SW 256 0 min 0,000 mm 0,0 UV-I 0 W/m 1,5 C 2,3 C 19,8 km/h (3 Bft) 0,00 %
31.03.2015 19:45 7,1 C 65 % 1003,5 hPa 0,0 l/m 13,3 km/h (3 Bft) W 259 0 min 0,000 mm 0,0 UV-I 0 W/m 1,0 C 2,5 C 19,8 km/h (3 Bft) 0,00 %
31.03.2015 20:00 7,0 C 66 % 1004,4 hPa 0,0 l/m 7,9 km/h (2 Bft) W-SW 251 0 min 0,000 mm 0,0 UV-I 0 W/m 1,1 C 5,8 C 11,9 km/h (2 Bft) 0,00 %
31.03.2015 20:15 7,2 C 64 % 1005,1 hPa 0,0 l/m 12,2 km/h (2 Bft) N-NW 331 0 min 0,000 mm 0,0 UV-I 0 W/m 0,9 C 3,2 C 15,8 km/h (3 Bft) 0,00 %
31.03.2015 20:30 7,2 C 62 % 1004,9 hPa 0,0 l/m 20,5 km/h (4 Bft) W-SW 253 0 min 0,000 mm 0,0 UV-I 0 W/m 0,4 C -0,5 C 24,1 km/h (4 Bft) 0,00 %
31.03.2015 20:45 7,2 C 61 % 1004,9 hPa 0,0 l/m 16,6 km/h (3 Bft) W-SW 251 0 min 0,000 mm 0,0 UV-I 0 W/m 0,2 C 1,0 C 24,1 km/h (4 Bft) 0,00 %
31.03.2015 21:00 7,2 C 59 % 1005,2 hPa 0,0 l/m 6,5 km/h (2 Bft) N-NW 341 0 min 0,000 mm 0,0 UV-I 0 W/m -0,3 C 7,1 C 7,9 km/h (2 Bft) 0,00 %
31.03.2015 21:15 7,0 C 58 % 1005,3 hPa 0,0 l/m 12,2 km/h (2 Bft) W 281 0 min 0,000 mm 0,0 UV-I 0 W/m -0,7 C 2,9 C 19,8 km/h (3 Bft) 0,00 %
31.03.2015 21:30 6,7 C 58 % 1006,1 hPa 0,0 l/m 9,7 km/h (2 Bft) W-SW 251 0 min 0,000 mm 0,0 UV-I 0 W/m -1,0 C 4,2 C 15,8 km/h (3 Bft) 0,00 %
31.03.2015 21:45 6,7 C 58 % 1006,1 hPa 0,0 l/m 11,9 km/h (2 Bft) SO 135 0 min 0,000 mm 0,0 UV-I 0 W/m -1,0 C 2,8 C 24,1 km/h (4 Bft) 0,00 %
31.03.2015 22:00 6,7 C 58 % 1006,2 hPa 0,0 l/m 9,7 km/h (2 Bft) W-NW 298 0 min 0,000 mm 0,0 UV-I 0 W/m -1,0 C 4,2 C 11,9 km/h (2 Bft) 0,00 %
31.03.2015 22:15 6,7 C 56 % 1006,6 hPa 0,0 l/m 14,8 km/h (3 Bft) W-SW 256 0 min 0,000 mm 0,0 UV-I 0 W/m -1,4 C 1,2 C 24,1 km/h (4 Bft) 0,00 %
31.03.2015 22:30 6,5 C 58 % 1006,4 hPa 0,0 l/m 16,9 km/h (3 Bft) SW 222 0 min 0,000 mm 0,0 UV-I 0 W/m -1,2 C 0,0 C 24,1 km/h (4 Bft) 0,00 %
31.03.2015 22:45 6,3 C 59 % 1006,9 hPa 0,0 l/m 10,4 km/h (2 Bft) S-SW 206 0 min 0,000 mm 0,0 UV-I 0 W/m -1,1 C 3,2 C 15,8 km/h (3 Bft) 0,00 %
31.03.2015 23:00 6,3 C 59 % 1006,9 hPa 0,0 l/m 10,8 km/h (2 Bft) W-SW 253 0 min 0,000 mm 0,0 UV-I 0 W/m -1,1 C 3,0 C 15,8 km/h (3 Bft) 0,00 %
31.03.2015 23:15 6,3 C 59 % 1006,9 hPa 0,0 l/m 5,8 km/h (2 Bft) W-SW 253 0 min 0,000 mm 0,0 UV-I 0 W/m -1,1 C 6,3 C 11,9 km/h (2 Bft) 0,00 %
31.03.2015 23:30 6,2 C 60 % 1006,9 hPa 0,0 l/m 9,0 km/h (2 Bft) N-NW 327 0 min 0,000 mm 0,0 UV-I 0 W/m -1,0 C 4,1 C 11,9 km/h (2 Bft) 0,00 %
31.03.2015 23:45 6,1 C 60 % 1007,6 hPa 0,0 l/m 5,4 km/h (1 Bft) W-SW 248 0 min 0,000 mm 0,0 UV-I 0 W/m -1,1 C 6,1 C 7,9 km/h (2 Bft) 0,00 %
31.03.2015 23:59 6,0 C 60 % 1007,5 hPa 0,0 l/m 72,4 km/h (8 Bft) W-SW 250 0 min 0,000 mm 0,0 UV-I 0 W/m -1,2 C -10,1 C 92,5 km/h (10 Bft) 0,00 %
_ Min-Zeit 07:00 12:15 12:00 - 02:45 - - - - - - 00:15 23:59 02:45 00:00
Minimum _ 3,2 C 43 % 993,6 hPa - 0,0 km/h (0 Bft) - - - - - - -1,8 C -10,1 C 0,0 km/h (0 Bft) 0,00 %
_ Max-Zeit 13:00 07:30 00:00 06:30 23:59 - - 09:45 00:00 12:00 14:15 15:15 14:45 23:59 00:00
Maximum _ 16,0 C 89 % 1012,9 hPa 0,6 l/m 72,4 km/h
W-SW (8 Bft)
- - 15 min 0,000 mm 3,0 UV-I 363 W/m 5,6 C 13,5 C 92,5 km/h
W-SW (10 Bft)
0,00 %
Durchschnitt _ 7,7 C 68 % 1002,3 hPa #4,2 l/m 10,1 km/h (2 Bft) W-SW - #45 min. #0,000 mm 1,7 UV-I 149 W/m 1,8 C 5,1 C 14,8 km/h (3 Bft) 0,00 %